Temperature
17 17 17 18 17 17 17 17 16 17 17 16 16 17 16 16 17 17 17 17 17 17 17 17 18 18 18 18 17 17 17 17 17 17 17 17 17 17 17 17 17 17 17
17 17 17 17 17 17 17 17 16 16 17 16 16 16 16 16 16 16 16 17 17 17 17 17 17 18 17 17 17 17 17 17 17 17 17 17 17 17 17 17 17 17 17
17 17 17 17 17 17 17 16 16 16 16 16 16 16 16 16 16 16 16 16 16 17 17 17 17 17 17 17 17 17 17 17 17 17 17 17 17 17 17 16 16 17 17
17 17 17 17 17 17 17 17 17 17 16 16 16 15 15 15 16 16 16 16 16 16 17 17 17 17 17 17 17 16 17 17 17 17 17 16 16 16 16 16 16 16 16
18 17 17 17 17 17 17 17 16 16 17 16 16 16 15 15 15 16 16 16 16 17 17 17 17 17 17 16 16 16 16 16 16 16 16 16 16 16 16 16 16 16 16
18 18 17 17 17 17 17 17 16 16 16 17 16 16 15 15 15 15 16 16 16 16 17 17 17 17 16 16 16 16 16 16 16 16 16 16 17 17 16 16 16 16 16
17 17 17 17 17 17 17 17 16 16 16 16 16 15 15 15 15 15 15 15 16 16 16 16 16 16 16 16 16 16 15 15 16 16 16 16 16 17 17 17 16 15 16
17 17 18 17 17 17 17 17 16 16 16 15 16 15 15 15 15 15 15 15 15 15 16 16 16 16 16 16 16 16 16 16 15 16 16 16 16 17 16 16 16 15 15
17 17 18 17 17 17 16 16 16 16 16 15 15 16 16 16 15 15 15 14 15 15 15 15 16 16 16 16 16 16 16 16 16 16 15 16 16 16 16 16 15 16 15
17 17 17 17 17 16 16 16 16 16 16 16 16 15 16 16 16 15 15 15 14 14 15 15 15 15 15 15 16 16 16 16 16 16 15 15 15 15 15 15 15 15 15
17 17 17 16 16 16 16 16 15 16 16 16 16 16 15 16 16 15 15 15 15 15 15 15 15 15 15 16 15 15 16 16 16 16 16 16 15 14 14 14 14 14 14
17 16 16 16 16 15 15 15 15 15 16 16 16 15 15 16 16 16 15 15 16 15 15 15 15 15 15 15 16 15 15 15 16 16 16 16 16 15 15 15 14 14 14
16 16 16 16 15 15 15 15 15 15 15 15 15 15 15 15 15 15 15 16 15 15 15 15 15 15 15 15 15 16 16 16 15 15 16 15 15 15 15 14 14 14 14
16 16 16 15 15 15 15 14 15 15 15 15 15 14 14 15 15 15 15 15 15 15 15 15 15 15 16 15 15 15 16 16 15 15 15 15 15 15 15 14 14 14 14
16 16 15 15 15 15 15 14 15 14 14 14 14 14 14 15 15 15 15 15 15 15 15 16 16 16 16 16 15 15 15 16 16 15 15 15 15 15 14 14 14 14 14
16 16 15 15 15 15 14 14 14 14 14 14 14 13 14 14 14 15 15 15 15 14 15 16 16 16 16 16 16 16 15 16 16 15 15 15 15 14 14 14 14 14 14
16 16 15 15 15 14 13 14 14 14 14 14 14 14 14 14 13 14 14 14 14 14 15 16 16 16 16 16 16 16 16 16 15 15 15 15 15 14 14 14 14 14 14
16 15 15 14 14 14 14 14 14 13 13 13 13 13 13 13 13 13 14 14 14 14 14 15 15 16 16 16 15 15 15 15 15 15 15 15 15 14 14 14 14 14 14
16 15 14 14 14 14 14 15 14 14 14 13 13 13 13 13 13 13 13 13 13 13 14 14 15 15 15 16 16 16 15 15 15 15 15 15 15 14 14 14 14 14 15
16 15 14 14 14 14 14 14 14 14 14 14 13 12 12 13 13 13 13 13 13 13 13 14 14 14 15 16 16 15 15 15 15 15 14 14 14 14 14 14 14 14 15
15 15 15 15 14 14 14 14 14 14 14 14 13 13 13 12 13 12 12 12 12 12 12 12 12 13 15 15 15 15 14 14 14 14 14 14 14 14 14 14 14 14 14
16 15 15 15 15 15 15 14 14 14 14 14 13 13 13 12 12 12 12 12 12 12 12 13 13 13 13 14 14 13 13 13 13 14 14 14 14 14 14 14 14 14 14
15 15 15 15 16 15 14 14 14 14 14 14 14 13 13 13 13 12 12 12 12 12 12 12 13 12 12 13 13 13 14 13 13 14 14 14 14 15 14 14 14 14 14
15 15 15 15 15 15 14 14 14 14 14 14 14 14 13 13 13 13 13 12 12 12 12 12 12 12 12 12 13 13 14 14 13 13 13 13 13 14 14 14 14 14 14
14 14 14 14 14 14 14 14 14 14 14 14 13 13 13 13 13 13 13 13 12 12 12 12 12 13 13 13 13 13 14 14 14 14 13 13 13 13 13 14 14 14 14
13 13 13 13 13 14 13 13 13 13 13 13 13 13 13 13 13 13 13 13 13 13 13 13 13 13 13 13 13 13 13 13 13 13 13 13 13 13 12 13 14 14 14
Wind_Speed
6 5 4 6 7 7 5 3 2 5 8 8 8 7 5 5 7 8 8 7 6 5 3 3 4 3 4 7 9 10 10 10 9 9 8 7 7 5 4 3 2 4 4
6 4 3 4 6 7 6 6 6 5 5 5 4 6 6 4 7 8 8 9 11 10 7 6 6 6 8 9 10 11 10 8 8 7 6 6 5 5 5 3 2 3 3
10 7 6 6 6 9 9 7 6 6 5 5 4 3 5 5 4 5 6 7 9 11 11 10 8 8 9 10 10 10 8 7 6 6 5 3 2 3 4 5 3 2 1
10 5 6 7 8 9 6 6 6 5 4 4 4 3 3 3 3 3 3 3 6 9 13 13 13 10 10 8 9 9 7 6 5 4 3 2 2 2 3 4 4 1 1
8 4 4 5 9 7 5 6 3 4 4 4 4 3 3 3 3 3 3 2 2 5 9 10 13 15 11 8 8 7 6 6 5 3 2 2 2 2 3 4 2 1 2
5 5 4 4 5 6 6 4 4 2 3 5 4 3 2 4 3 3 2 2 3 3 6 6 6 9 11 12 10 7 6 6 5 4 2 1 0 2 4 4 4 3 2
5 4 5 5 5 5 7 7 5 3 1 2 4 2 2 0 3 3 2 2 2 4 4 4 4 5 6 6 8 9 7 5 6 8 6 4 2 0 3 3 4 5 5
6 5 6 5 5 4 6 7 6 5 4 3 3 4 1 2 2 2 1 3 3 3 3 4 5 5 5 4 6 8 10 6 7 8 7 6 5 1 3 3 2 2 4
6 6 5 6 5 5 6 7 6 7 5 4 2 3 4 4 2 3 3 2 3 2 2 5 7 6 6 4 4 5 6 8 6 5 7 6 6 6 3 3 3 3 4
7 7 6 6 6 5 5 6 5 5 5 6 5 4 2 4 3 2 3 3 3 4 4 4 7 9 7 5 4 4 5 6 4 3 5 6 6 7 8 8 6 5 6
5 5 6 5 6 5 5 4 5 6 5 5 5 4 3 1 2 3 2 3 3 4 4 4 6 8 9 8 7 5 4 4 4 4 4 4 6 8 8 8 6 4 5
3 5 5 6 7 7 6 6 5 6 7 5 4 4 4 3 3 3 2 3 5 5 5 4 5 8 11 11 9 8 5 3 3 4 5 4 3 5 5 6 4 4 4
4 6 6 6 5 6 6 6 6 6 7 6 6 3 3 4 4 3 3 4 5 4 3 4 4 9 12 13 11 10 8 5 4 4 4 3 3 4 3 1 1 2 3
5 6 7 6 7 6 5 6 5 6 6 6 7 8 7 8 8 6 5 4 3 4 4 5 4 6 11 14 13 11 9 8 7 5 4 3 2 2 1 1 1 1 2
4 5 5 6 6 6 6 6 6 7 7 7 8 10 9 7 6 6 6 6 4 4 7 6 5 7 10 13 13 12 11 11 11 9 7 5 3 2 2 1 1 2 4
5 6 6 5 3 4 5 4 3 4 5 6 7 9 9 6 6 5 6 5 5 5 5 7 6 3 5 9 13 14 13 12 13 12 10 7 6 5 4 3 3 4 5
7 7 6 5 6 6 5 3 3 3 4 5 6 8 10 10 8 6 6 4 4 4 4 2 2 3 4 6 5 10 11 11 13 13 12 10 9 7 6 4 5 5 5
7 7 7 7 7 7 6 5 5 4 4 5 6 6 7 8 9 8 8 6 4 4 3 2 2 2 3 5 5 4 6 9 12 14 15 14 12 11 9 6 6 6 5
7 7 7 7 7 7 7 7 6 5 4 5 5 6 7 6 5 6 7 6 5 3 2 2 2 1 1 1 2 1 2 4 9 12 14 15 14 13 11 9 8 7 6
8 8 8 7 7 7 8 7 5 4 3 4 5 5 5 6 7 8 8 8 7 5 2 1 1 3 3 2 2 2 4 5 5 6 10 12 13 14 13 12 10 8 7
9 7 7 7 6 6 7 7 6 6 5 4 3 1 2 6 9 8 6 7 6 5 5 3 2 2 3 4 5 4 6 3 5 5 4 5 8 9 12 14 13 11 10
11 4 4 6 5 5 8 11 9 7 6 6 5 4 4 6 8 11 12 11 10 8 5 4 2 1 3 3 4 6 5 3 4 5 6 5 5 6 7 12 15 14 13
3 5 8 7 4 4 6 10 11 7 6 6 6 5 5 6 7 7 11 13 13 12 9 6 4 7 5 5 5 6 6 7 7 4 5 3 4 5 7 13 16 17 16
3 6 5 0 2 3 6 3 8 6 5 6 6 6 7 7 7 9 8 9 10 11 11 9 8 9 8 7 7 6 8 8 3 3 5 4 5 5 5 12 18 19 20
4 3 2 2 3 5 7 8 4 3 3 5 6 6 6 7 9 11 9 7 7 7 9 12 14 14 13 13 9 6 6 6 5 4 6 4 3 3 3 4 12 19 22
5 6 6 4 2 3 5 3 4 2 3 5 5 5 6 7 11 11 10 8 7 6 6 7 10 10 5 3 6 7 5 5 3 3 4 6 4 3 3 2 2 8 13
Wind_Direction
170 176 181 186 200 194 197 134 126 102 104 118 120 115 103 102 84 65 46 50 67 71 88 126 129 117 137 153 136 139 150 155 152 157 165 169 172 167 172 192 154 125 107
174 178 186 190 205 197 191 165 152 128 116 115 115 126 127 116 95 78 57 49 65 64 68 91 112 117 119 126 132 127 134 140 142 148 158 170 178 188 189 216 199 128 105
182 188 186 199 203 195 187 158 143 128 126 122 124 144 150 154 129 103 75 46 49 62 63 69 86 105 116 122 125 127 130 134 132 132 142 155 184 212 210 225 227 161 108
184 182 175 194 184 170 155 147 146 138 141 143 136 133 132 143 157 136 103 50 42 52 56 55 59 80 94 104 113 122 130 137 136 136 158 195 223 243 231 221 235 224 289
194 158 166 187 169 157 148 146 156 153 159 170 153 142 127 143 166 124 101 126 94 75 70 58 48 57 69 89 105 110 128 130 130 141 170 225 240 230 206 187 207 244 294
193 160 149 193 187 164 154 150 130 158 170 177 151 139 123 123 140 149 156 175 168 131 100 87 63 54 52 56 59 84 110 121 119 111 106 59 292 226 212 201 199 208 264
175 163 152 167 195 188 172 166 144 149 178 156 116 85 15 24 160 189 158 180 190 175 157 128 103 85 70 58 47 54 90 102 90 70 58 64 53 279 219 220 232 210 225
176 178 173 167 195 185 173 178 163 153 173 184 159 145 192 283 285 268 171 182 210 179 167 181 150 125 112 85 61 50 44 46 80 71 64 52 31 345 222 211 250 228 247
207 198 193 174 183 185 190 193 188 170 162 161 202 176 177 205 224 283 256 207 205 204 162 174 176 157 138 118 82 61 46 41 48 43 57 53 43 45 90 134 141 105 79
211 203 197 175 181 188 205 207 184 192 173 167 171 201 226 162 159 210 284 268 230 216 181 167 173 179 169 149 129 100 77 61 58 64 62 67 67 72 76 80 78 77 69
223 212 196 167 161 181 210 225 200 200 206 179 167 149 181 151 166 141 220 256 264 250 220 173 170 177 180 166 156 142 120 92 73 76 70 76 60 71 68 68 58 76 74
238 231 196 180 175 192 196 192 202 211 209 188 177 177 169 164 197 137 172 239 236 244 232 195 181 183 186 184 178 170 164 147 112 89 71 61 28 45 51 51 28 32 36
217 226 204 188 187 204 199 198 198 215 215 197 183 197 195 184 165 153 170 224 236 238 235 229 204 185 186 192 190 178 178 180 170 140 115 102 66 52 47 8 321 323 335
207 221 207 191 188 194 199 211 208 218 218 209 192 197 209 207 196 187 180 181 220 238 233 231 216 200 188 189 195 187 183 187 186 179 164 141 106 84 78 69 38 353 319
190 186 170 174 169 168 182 198 217 217 205 205 206 212 216 214 203 196 192 180 176 223 234 220 209 207 192 190 194 191 192 193 194 196 189 178 161 151 191 217 287 318 310
170 161 175 179 186 178 182 179 209 220 214 213 208 214 222 222 207 194 202 192 169 209 244 211 210 208 179 182 196 192 199 199 200 200 198 197 195 196 204 215 252 283 297
180 187 189 197 220 215 203 188 201 204 229 239 225 220 223 216 212 198 192 172 155 177 222 246 203 195 160 168 179 196 208 206 205 206 207 210 214 218 221 228 250 261 271
193 198 199 202 215 217 212 204 215 218 233 255 255 243 241 221 211 190 185 170 148 163 167 221 239 202 191 184 161 180 202 206 207 212 212 215 219 223 228 233 251 258 264
203 213 216 213 214 224 225 222 206 211 231 261 262 243 235 212 179 162 162 155 146 146 145 170 229 193 233 164 126 169 207 213 217 220 218 218 219 222 228 232 243 253 257
211 210 219 225 216 217 226 233 201 203 241 276 275 250 221 200 180 166 159 158 155 149 140 122 223 221 188 166 142 178 224 230 233 226 223 220 222 223 227 233 240 244 244
273 221 224 234 230 209 209 206 196 193 194 234 271 264 189 182 176 175 172 166 166 159 148 147 200 216 191 171 195 196 214 218 241 214 212 222 217 222 227 231 235 237 236
268 263 261 257 245 215 215 204 190 187 186 190 207 232 231 213 200 202 200 183 172 166 163 157 181 241 248 206 183 197 186 171 251 210 197 229 199 221 218 226 232 231 233
263 218 218 208 197 199 230 219 209 188 193 199 195 201 223 230 218 214 215 207 200 197 188 171 192 225 226 216 202 198 193 195 213 188 170 240 207 234 221 223 227 228 227
249 231 233 75 33 321 291 226 204 187 200 216 221 213 216 231 220 207 206 215 213 209 204 201 214 226 228 224 225 217 209 213 233 177 158 205 209 224 212 222 223 220 218
356 306 267 295 318 311 283 228 187 168 203 238 244 239 230 240 244 212 191 206 217 219 207 214 228 232 236 244 229 212 195 196 228 224 192 202 204 221 237 230 224 222 218
29 40 64 69 40 350 343 249 213 192 231 259 274 277 265 260 248 222 194 193 210 219 202 213 229 228 229 257 212 199 187 196 208 245 211 190 189 179 260 263 238 215 211
Height
1536 1538 1539 1541 1543 1544 1544 1545 1545 1547 1547 1547 1548 1548 1548 1547 1546 1545 1545 1545 1545 1545 1544 1545 1546 1546 1547 1548 1548 1549 1550 1551 1551 1551 1552 1553 1553 1553 1553 1553 1553 1551 1551
1537 1539 1540 1541 1543 1545 1545 1545 1545 1547 1549 1550 1550 1549 1548 1548 1547 1546 1546 1546 1546 1545 1545 1545 1546 1547 1547 1548 1549 1549 1551 1551 1551 1551 1552 1552 1552 1552 1551 1552 1552 1551 1551
1535 1537 1539 1540 1542 1544 1545 1546 1546 1546 1547 1549 1551 1550 1549 1549 1549 1548 1547 1548 1547 1547 1547 1546 1546 1547 1548 1549 1549 1550 1551 1552 1552 1551 1551 1551 1551 1551 1550 1550 1551 1550 1551
1534 1536 1537 1538 1540 1542 1544 1545 1546 1547 1548 1548 1549 1550 1550 1549 1550 1549 1549 1550 1550 1549 1549 1548 1548 1548 1549 1550 1550 1550 1551 1552 1551 1550 1550 1550 1550 1550 1549 1549 1549 1550 1550
1533 1534 1536 1537 1538 1539 1541 1544 1545 1547 1547 1548 1548 1549 1550 1550 1551 1550 1550 1551 1551 1550 1550 1550 1550 1550 1550 1551 1551 1551 1551 1551 1551 1550 1550 1549 1549 1549 1549 1549 1549 1549 1549
1530 1532 1533 1535 1536 1538 1540 1542 1543 1545 1547 1547 1548 1549 1550 1549 1551 1550 1551 1551 1551 1551 1550 1551 1551 1551 1552 1553 1553 1552 1552 1551 1551 1550 1550 1549 1548 1548 1547 1547 1547 1548 1548
1527 1529 1530 1532 1535 1536 1538 1541 1540 1542 1544 1546 1547 1549 1549 1549 1549 1550 1550 1551 1551 1551 1551 1551 1552 1552 1552 1553 1553 1554 1553 1552 1551 1551 1550 1549 1549 1548 1547 1546 1546 1547 1547
1525 1526 1527 1530 1531 1533 1535 1535 1537 1539 1540 1542 1544 1547 1547 1548 1547 1548 1549 1550 1550 1550 1551 1551 1552 1552 1553 1553 1553 1554 1554 1553 1551 1551 1550 1549 1548 1548 1547 1546 1546 1546 1546
1521 1523 1524 1526 1528 1529 1532 1533 1534 1536 1538 1539 1542 1545 1544 1543 1543 1546 1547 1548 1549 1549 1550 1551 1551 1551 1552 1553 1553 1553 1553 1553 1552 1551 1550 1550 1549 1548 1548 1547 1546 1545 1545
1518 1519 1520 1522 1524 1526 1527 1527 1529 1531 1534 1535 1538 1540 1542 1540 1541 1543 1545 1546 1548 1548 1548 1549 1550 1551 1551 1552 1553 1553 1553 1552 1552 1552 1551 1550 1549 1548 1547 1546 1545 1545 1544
1517 1517 1517 1518 1521 1523 1524 1526 1528 1527 1530 1532 1532 1535 1538 1539 1538 1540 1542 1544 1546 1547 1547 1547 1548 1549 1550 1550 1551 1552 1552 1552 1551 1551 1551 1549 1548 1547 1546 1546 1545 1544 1543
1514 1514 1515 1517 1518 1519 1520 1521 1522 1524 1525 1526 1528 1531 1534 1536 1535 1537 1539 1542 1543 1544 1545 1545 1545 1546 1548 1549 1549 1549 1550 1550 1550 1550 1550 1548 1547 1546 1546 1545 1544 1543 1543
1512 1513 1514 1514 1515 1515 1516 1517 1516 1518 1521 1523 1525 1527 1529 1531 1532 1535 1537 1538 1539 1540 1541 1542 1543 1543 1545 1546 1547 1547 1547 1548 1548 1549 1548 1547 1546 1545 1544 1543 1542 1541 1540
1509 1510 1511 1510 1510 1510 1512 1514 1514 1515 1518 1519 1521 1522 1523 1526 1528 1531 1534 1535 1536 1537 1537 1538 1540 1541 1542 1543 1544 1544 1544 1544 1546 1546 1546 1546 1545 1544 1543 1542 1541 1540 1538
1507 1508 1509 1510 1508 1507 1508 1511 1511 1511 1512 1514 1516 1517 1518 1521 1523 1525 1528 1530 1532 1533 1533 1534 1537 1538 1539 1539 1541 1541 1542 1542 1543 1544 1544 1544 1543 1542 1541 1540 1539 1538 1538
1507 1507 1507 1507 1508 1506 1506 1507 1508 1509 1509 1510 1510 1511 1512 1515 1518 1520 1522 1524 1526 1529 1529 1530 1533 1535 1536 1537 1538 1539 1540 1540 1541 1541 1541 1541 1540 1540 1539 1538 1537 1536 1536
1506 1506 1506 1505 1506 1504 1503 1503 1504 1504 1504 1505 1505 1505 1506 1508 1511 1513 1516 1518 1520 1523 1523 1524 1527 1530 1532 1534 1535 1536 1537 1538 1538 1538 1538 1539 1538 1538 1537 1536 1535 1534 1533
1504 1505 1505 1504 1504 1503 1502 1501 1502 1501 1500 1500 1500 1499 1500 1501 1502 1506 1509 1512 1514 1517 1518 1519 1521 1525 1527 1529 1531 1533 1534 1534 1535 1536 1536 1536 1536 1535 1535 1533 1532 1531 1530
1501 1502 1504 1504 1503 1502 1501 1500 1500 1499 1498 1497 1496 1495 1496 1497 1498 1500 1503 1506 1508 1511 1512 1515 1517 1520 1523 1524 1526 1528 1530 1530 1531 1532 1533 1533 1533 1533 1532 1531 1529 1528 1527
1499 1499 1500 1501 1501 1500 1499 1499 1498 1497 1496 1495 1493 1492 1493 1493 1495 1498 1500 1502 1503 1505 1507 1510 1513 1517 1519 1520 1521 1523 1525 1526 1527 1528 1529 1530 1530 1530 1529 1528 1527 1525 1524
1498 1497 1497 1497 1498 1498 1497 1497 1497 1495 1494 1494 1493 1491 1491 1492 1493 1495 1496 1498 1500 1500 1502 1505 1509 1511 1513 1514 1516 1519 1521 1522 1522 1522 1523 1524 1525 1525 1525 1524 1523 1522 1522
1489 1493 1493 1494 1495 1495 1495 1495 1495 1494 1493 1492 1492 1492 1491 1491 1491 1492 1493 1495 1497 1498 1499 1502 1504 1506 1507 1510 1512 1514 1515 1516 1516 1518 1518 1519 1519 1519 1520 1520 1519 1519 1518
1485 1486 1488 1489 1490 1492 1492 1491 1492 1493 1492 1491 1491 1492 1492 1491 1491 1491 1491 1492 1494 1495 1497 1499 1501 1503 1504 1507 1508 1508 1508 1510 1511 1513 1514 1514 1514 1514 1516 1516 1515 1515 1515
1484 1485 1486 1486 1487 1488 1488 1487 1488 1490 1490 1490 1490 1490 1491 1491 1491 1491 1490 1490 1491 1492 1493 1494 1496 1499 1500 1502 1503 1504 1504 1506 1508 1508 1510 1509 1510 1510 1512 1512 1512 1511 1511
1481 1482 1482 1483 1483 1484 1484 1485 1485 1485 1487 1487 1488 1488 1488 1488 1489 1489 1488 1488 1488 1488 1490 1492 1494 1496 1497 1498 1500 1502 1501 1502 1502 1503 1504 1504 1504 1505 1506 1507 1507 1507 1507
1479 1479 1479 1479 1480 1481 1481 1481 1481 1481 1482 1483 1483 1484 1484 1484 1485 1485 1485 1486 1486 1487 1488 1490 1492 1493 1493 1494 1496 1498 1497 1498 1498 1499 1500 1499 1499 1500 1500 1501 1501 1502 1503